• In Germany
  • List of Countries
  • For 7 days
  • Water Temperature
  • Satellite Maps
  • Weather Map
  • Weather Widgets
  • user-avatar
    Login

    Hourly Weather Tskhinvali

    Today, 18 August, Saturday

    Time Temperature Precipitation Wind Pressure Humidity
    00:00 +19°C° 0 mm 1 mps 680 mmHg 82%
    01:00 +19°C° 0 mm 1 mps 680 mmHg 81%
    02:00 +19°C° 0 mm 1 mps 680 mmHg 81%
    03:00 +19°C° 0 mm 1 mps 680 mmHg 81%
    04:00 +19°C° 0 mm 1 mps 680 mmHg 79%
    05:00 +19°C° 0 mm 1 mps 680 mmHg 78%
    06:00 +19°C° 0 mm 2 mps 680 mmHg 76%
    07:00 +22°C° 0.1 mm 1 mps 680 mmHg 69%
    08:00 +24°C° 0.1 mm 1 mps 681 mmHg 61%
    09:00 +27°C° 0.1 mm 1 mps 681 mmHg 53%
    10:00 +28°C° 0.3 mm 1 mps 681 mmHg 50%
    11:00 +29°C° 0.3 mm 2 mps 681 mmHg 48%
    12:00 +30°C° 0.3 mm 2 mps 681 mmHg 45%
    13:00 +30°C° 0.7 mm 2 mps 681 mmHg 48%
    14:00 +30°C° 0.7 mm 2 mps 681 mmHg 51%
    15:00 +29°C° 0.7 mm 1 mps 680 mmHg 53%
    16:00 +28°C° 1.4 mm 2 mps 680 mmHg 60%
    17:00 +26°C° 1.4 mm 3 mps 680 mmHg 67%
    18:00 +25°C° 1.4 mm 3 mps 680 mmHg 73%
    19:00 +22°C° 0.6 mm 3 mps 680 mmHg 77%
    20:00 +20°C° 0.6 mm 3 mps 680 mmHg 81%
    21:00 +18°C° 0.6 mm 3 mps 680 mmHg 85%
    22:00 +18°C° 0.3 mm 2 mps 680 mmHg 84%
    23:00 +18°C° 0.3 mm 2 mps 680 mmHg 83%

    Tomorrow, 19 August, Sunday

    Time Temperature Precipitation Wind Pressure Humidity
    00:00 +17°C° 0.3 mm 2 mps 680 mmHg 82%
    01:00 +17°C° 0 mm 2 mps 680 mmHg 80%
    02:00 +17°C° 0 mm 2 mps 680 mmHg 78%
    03:00 +16°C° 0 mm 2 mps 680 mmHg 76%
    04:00 +16°C° 0 mm 2 mps 680 mmHg 75%
    05:00 +17°C° 0 mm 2 mps 680 mmHg 75%
    06:00 +17°C° 0 mm 2 mps 680 mmHg 74%
    07:00 +19°C° 0 mm 2 mps 681 mmHg 66%
    08:00 +23°C° 0 mm 2 mps 681 mmHg 57%
    09:00 +25°C° 0 mm 2 mps 682 mmHg 48%
    10:00 +26°C° 0 mm 2 mps 682 mmHg 45%
    11:00 +28°C° 0 mm 2 mps 682 mmHg 41%
    12:00 +29°C° 0 mm 2 mps 682 mmHg 37%
    13:00 +29°C° 0 mm 2 mps 682 mmHg 38%
    14:00 +29°C° 0 mm 2 mps 682 mmHg 39%
    15:00 +29°C° 0 mm 2 mps 682 mmHg 39%
    16:00 +28°C° 0 mm 2 mps 682 mmHg 46%
    17:00 +26°C° 0 mm 2 mps 681 mmHg 53%
    18:00 +25°C° 0 mm 2 mps 681 mmHg 59%
    19:00 +23°C° 0 mm 2 mps 681 mmHg 65%
    20:00 +20°C° 0 mm 2 mps 681 mmHg 70%
    21:00 +18°C° 0 mm 2 mps 682 mmHg 75%
    22:00 +18°C° 0 mm 2 mps 682 mmHg 74%
    23:00 +17°C° 0 mm 2 mps 682 mmHg 74%

    Day after tomorrow, 20 August, Monday

    Time Temperature Precipitation Wind Pressure Humidity
    00:00 +17°C° 0 mm 2 mps 682 mmHg 74%
    01:00 +17°C° 0 mm 2 mps 682 mmHg 72%
    02:00 +17°C° 0 mm 2 mps 682 mmHg 69%
    03:00 +17°C° 0 mm 2 mps 682 mmHg 67%
    04:00 +17°C° 0 mm 2 mps 682 mmHg 67%
    05:00 +17°C° 0 mm 2 mps 682 mmHg 68%
    06:00 +17°C° 0 mm 2 mps 682 mmHg 68%
    07:00 +19°C° 0 mm 3 mps 682 mmHg 63%
    08:00 +20°C° 0 mm 3 mps 683 mmHg 58%
    09:00 +22°C° 0 mm 4 mps 683 mmHg 53%
    10:00 +23°C° 0 mm 4 mps 683 mmHg 52%
    11:00 +25°C° 0 mm 5 mps 683 mmHg 50%
    12:00 +26°C° 0 mm 5 mps 683 mmHg 49%
    13:00 +26°C° 0 mm 5 mps 683 mmHg 50%
    14:00 +26°C° 0 mm 5 mps 683 mmHg 51%
    15:00 +26°C° 0 mm 5 mps 683 mmHg 52%
    16:00 +25°C° 0 mm 5 mps 683 mmHg 56%
    17:00 +23°C° 0 mm 4 mps 683 mmHg 60%
    18:00 +22°C° 0 mm 4 mps 683 mmHg 64%
    19:00 +21°C° 0 mm 3 mps 683 mmHg 68%
    20:00 +19°C° 0 mm 3 mps 683 mmHg 73%
    21:00 +18°C° 0 mm 3 mps 683 mmHg 77%
    22:00 +18°C° 0.1 mm 3 mps 683 mmHg 78%
    23:00 +17°C° 0.1 mm 3 mps 683 mmHg 79%

    21 August, Tuesday

    Time Temperature Precipitation Wind Pressure Humidity
    00:00 +17°C° 0.1 mm 3 mps 683 mmHg 80%
    01:00 +16°C° 0.2 mm 3 mps 683 mmHg 82%
    02:00 +16°C° 0.2 mm 3 mps 683 mmHg 84%
    03:00 +15°C° 0.2 mm 2 mps 683 mmHg 85%
    04:00 +15°C° 0.1 mm 2 mps 683 mmHg 85%
    05:00 +15°C° 0.1 mm 2 mps 683 mmHg 86%
    06:00 +15°C° 0.1 mm 2 mps 683 mmHg 86%
    07:00 +17°C° 0 mm 3 mps 683 mmHg 77%
    08:00 +20°C° 0 mm 3 mps 683 mmHg 68%
    09:00 +22°C° 0 mm 3 mps 684 mmHg 58%
    10:00 +23°C° 0 mm 4 mps 684 mmHg 54%
    11:00 +26°C° 0 mm 4 mps 684 mmHg 50%
    12:00 +27°C° 0 mm 4 mps 684 mmHg 46%
    13:00 +27°C° 0 mm 4 mps 684 mmHg 45%
    14:00 +28°C° 0 mm 4 mps 684 mmHg 44%
    15:00 +28°C° 0 mm 3 mps 683 mmHg 44%
    16:00 +27°C° 0 mm 3 mps 683 mmHg 49%
    17:00 +26°C° 0 mm 3 mps 684 mmHg 53%
    18:00 +25°C° 0 mm 2 mps 684 mmHg 58%
    19:00 +23°C° 0 mm 2 mps 684 mmHg 65%
    20:00 +21°C° 0 mm 1 mps 684 mmHg 71%
    21:00 +18°C° 0 mm 1 mps 684 mmHg 78%
    22:00 +18°C° 0 mm 1 mps 684 mmHg 78%
    23:00 +18°C° 0 mm 1 mps 683 mmHg 78%

    22 August, Wednesday

    Time Temperature Precipitation Wind Pressure Humidity
    00:00 +16°C° 0 mm 1 mps 683 mmHg 79%
    01:00 +16°C° 0 mm 1 mps 683 mmHg 78%
    02:00 +16°C° 0 mm 1 mps 683 mmHg 77%
    03:00 +16°C° 0 mm 1 mps 683 mmHg 77%
    04:00 +16°C° 0 mm 1 mps 683 mmHg 76%
    05:00 +16°C° 0 mm 1 mps 683 mmHg 76%
    06:00 +16°C° 0 mm 1 mps 683 mmHg 76%
    07:00 +20°C° 0 mm 1 mps 684 mmHg 68%
    08:00 +21°C° 0 mm 2 mps 684 mmHg 60%
    09:00 +25°C° 0 mm 2 mps 685 mmHg 52%
    10:00 +26°C° 0 mm 2 mps 685 mmHg 49%
    11:00 +28°C° 0 mm 2 mps 685 mmHg 46%
    12:00 +29°C° 0 mm 2 mps 684 mmHg 43%
    13:00 +29°C° 0.1 mm 2 mps 684 mmHg 42%
    14:00 +29°C° 0.1 mm 2 mps 684 mmHg 41%
    15:00 +30°C° 0.1 mm 2 mps 684 mmHg 40%
    16:00 +28°C° 0.1 mm 2 mps 684 mmHg 46%
    17:00 +27°C° 0.1 mm 1 mps 684 mmHg 52%
    18:00 +26°C° 0.1 mm 1 mps 684 mmHg 57%
    19:00 +24°C° 0 mm 1 mps 684 mmHg 64%
    20:00 +22°C° 0 mm 1 mps 684 mmHg 70%
    21:00 +20°C° 0 mm 1 mps 684 mmHg 77%
    22:00 +19°C° 0 mm 1 mps 684 mmHg 76%
    23:00 +19°C° 0 mm 1 mps 684 mmHg 76%

    23 August, Thursday

    Time Temperature Precipitation Wind Pressure Humidity
    00:00 +18°C° 0 mm 1 mps 684 mmHg 75%
    01:00 +18°C° 0 mm 1 mps 684 mmHg 75%
    02:00 +18°C° 0 mm 1 mps 684 mmHg 74%
    03:00 +17°C° 0 mm 2 mps 684 mmHg 74%
    04:00 +17°C° 0 mm 2 mps 684 mmHg 73%
    05:00 +17°C° 0 mm 2 mps 684 mmHg 73%
    06:00 +17°C° 0 mm 2 mps 684 mmHg 73%
    07:00 +19°C° 0 mm 2 mps 684 mmHg 64%
    08:00 +22°C° 0 mm 3 mps 684 mmHg 56%
    09:00 +25°C° 0 mm 4 mps 684 mmHg 48%
    10:00 +27°C° 0 mm 4 mps 684 mmHg 44%
    11:00 +28°C° 0 mm 4 mps 684 mmHg 40%
    12:00 +29°C° 0 mm 5 mps 684 mmHg 37%
    13:00 +29°C° 0 mm 5 mps 683 mmHg 36%
    14:00 +30°C° 0 mm 5 mps 683 mmHg 36%
    15:00 +30°C° 0 mm 5 mps 683 mmHg 36%
    16:00 +29°C° 0 mm 4 mps 683 mmHg 40%
    17:00 +27°C° 0 mm 4 mps 683 mmHg 44%
    18:00 +26°C° 0 mm 3 mps 683 mmHg 49%
    19:00 +24°C° 0 mm 3 mps 683 mmHg 53%
    20:00 +21°C° 0 mm 2 mps 683 mmHg 57%
    21:00 +19°C° 0 mm 2 mps 683 mmHg 60%
    22:00 +18°C° 0 mm 2 mps 682 mmHg 60%
    23:00 +18°C° 0 mm 2 mps 682 mmHg 59%
    Show more